TimeCET,TemperatureF,Dew PointF,Humidity,Sea Level PressureIn,VisibilityMPH,Wind Direction,Wind SpeedMPH,Gust SpeedMPH,PrecipitationIn,Events,Conditions,WindDirDegrees,DateUTC
12:00 AM,41.0,41.0,100,29.92,1.1,Calm,Calm,-,N/A,,Mist,0,2012-11-05 23:00:00
12:30 AM,41.0,41.0,100,29.95,0.2,Calm,Calm,-,N/A,Fog,Fog,0,2012-11-05 23:30:00
1:00 AM,39.2,39.2,100,29.95,0.1,Calm,Calm,-,N/A,Fog,Fog,0,2012-11-06 00:00:00
1:30 AM,39.2,39.2,100,29.95,0.3,Calm,Calm,-,N/A,Fog,Fog,0,2012-11-06 00:30:00
2:00 AM,37.4,37.4,100,29.98,0.2,Calm,Calm,-,N/A,Fog,Fog,0,2012-11-06 01:00:00
2:30 AM,37.4,37.4,100,29.98,0.2,NNW,1.2,-,N/A,Fog,Fog,340,2012-11-06 01:30:00
3:00 AM,37.4,37.4,100,29.98,0.1,NNW,1.2,-,N/A,Fog,Fog,330,2012-11-06 02:00:00
3:30 AM,37.4,37.4,100,30.01,0.4,Calm,Calm,-,N/A,Fog,Fog,0,2012-11-06 02:30:00
4:00 AM,37.4,37.4,100,30.01,0.2,Calm,Calm,-,N/A,Fog,Fog,0,2012-11-06 03:00:00
4:30 AM,35.6,35.6,100,30.01,-9999.0,Calm,Calm,-,N/A,,Partly Cloudy,0,2012-11-06 03:30:00
5:00 AM,33.8,33.8,100,30.01,0.2,Calm,Calm,-,N/A,Fog,Fog,0,2012-11-06 04:00:00
5:30 AM,33.8,33.8,100,30.04,0.2,Calm,Calm,-,N/A,Fog,Fog,0,2012-11-06 04:30:00
6:00 AM,33.8,33.8,100,30.04,0.2,Calm,Calm,-,N/A,Fog,Fog,0,2012-11-06 05:00:00
6:30 AM,30.2,30.2,100,30.06,0.2,Calm,Calm,-,N/A,Fog,Light Freezing Fog,0,2012-11-06 05:30:00
7:00 AM,33.8,33.8,100,30.06,0.8,Calm,Calm,-,N/A,Fog,Patches of Fog,0,2012-11-06 06:00:00
7:30 AM,33.8,33.8,100,30.06,0.2,South,1.2,-,N/A,Fog,Fog,170,2012-11-06 06:30:00
8:00 AM,30.2,30.2,100,30.09,1.2,Calm,Calm,-,N/A,,Mist,0,2012-11-06 07:00:00
8:30 AM,32.0,32.0,100,30.09,-9999.0,Calm,Calm,-,N/A,,Mist,0,2012-11-06 07:30:00
9:00 AM,35.6,35.6,100,30.12,-9999.0,SW,1.2,-,N/A,,Mist,220,2012-11-06 08:00:00
9:30 AM,37.4,37.4,100,30.12,-9999.0,Calm,Calm,-,N/A,,Mist,0,2012-11-06 08:30:00
10:00 AM,41.0,39.2,93,30.15,3.1,WNW,5.8,-,N/A,,Mist,290,2012-11-06 09:00:00
10:30 AM,42.8,42.8,100,30.15,4.3,West,4.6,-,N/A,,Unknown,280,2012-11-06 09:30:00
11:00 AM,44.6,42.8,93,30.15,6.2,NW,4.6,-,N/A,,Unknown,310,2012-11-06 10:00:00
11:30 AM,46.4,42.8,87,30.18,6.2,West,3.5,-,N/A,,Unknown,280,2012-11-06 10:30:00
12:00 PM,48.2,42.8,82,30.18,6.2,West,4.6,-,N/A,,Mostly Cloudy,280,2012-11-06 11:00:00
12:30 PM,48.2,44.6,87,30.18,6.2,West,5.8,-,N/A,,Overcast,270,2012-11-06 11:30:00
1:00 PM,50.0,42.8,76,30.18,6.2,NNW,6.9,-,N/A,,Mostly Cloudy,340,2012-11-06 12:00:00
1:30 PM,51.8,42.8,71,30.18,6.2,NW,6.9,-,N/A,,Unknown,320,2012-11-06 12:30:00
2:00 PM,50.0,39.2,66,30.21,6.2,NW,3.5,-,N/A,,Mostly Cloudy,320,2012-11-06 13:00:00
2:30 PM,51.8,41.0,67,30.21,6.2,WNW,3.5,-,N/A,,Mostly Cloudy,290,2012-11-06 13:30:00
3:00 PM,51.8,39.2,62,30.21,6.2,NW,5.8,-,N/A,,Mostly Cloudy,310,2012-11-06 14:00:00
3:30 PM,50.0,37.4,62,30.21,6.2,West,9.2,-,N/A,,Partly Cloudy,280,2012-11-06 14:30:00
4:00 PM,50.0,35.6,58,30.21,6.2,West,6.9,-,N/A,,Scattered Clouds,280,2012-11-06 15:00:00
4:30 PM,50.0,37.4,62,30.21,6.2,West,6.9,-,N/A,,Unknown,280,2012-11-06 15:30:00
5:00 PM,46.4,37.4,71,30.21,6.2,West,5.8,-,N/A,,Unknown,270,2012-11-06 16:00:00
5:30 PM,46.4,37.4,71,30.21,6.2,WSW,5.8,-,N/A,,Unknown,240,2012-11-06 16:30:00
6:00 PM,44.6,37.4,76,30.21,6.2,SW,5.8,-,N/A,,Unknown,230,2012-11-06 17:00:00
6:30 PM,44.6,37.4,76,30.24,6.2,WSW,6.9,-,N/A,,Unknown,240,2012-11-06 17:30:00
7:00 PM,44.6,39.2,81,30.24,6.2,WSW,6.9,-,N/A,,Unknown,240,2012-11-06 18:00:00
7:30 PM,44.6,39.2,81,30.24,6.2,SW,5.8,-,N/A,,Unknown,230,2012-11-06 18:30:00
8:00 PM,44.6,37.4,76,30.24,6.2,WSW,8.1,-,N/A,,Unknown,240,2012-11-06 19:00:00
8:30 PM,44.6,37.4,76,30.24,6.2,SW,9.2,-,N/A,,Unknown,230,2012-11-06 19:30:00
9:00 PM,44.6,37.4,76,30.24,6.2,SW,8.1,-,N/A,,Unknown,230,2012-11-06 20:00:00
9:30 PM,44.6,37.4,76,30.27,6.2,WSW,8.1,-,N/A,,Unknown,240,2012-11-06 20:30:00
10:00 PM,44.6,37.4,76,30.27,6.2,SW,6.9,-,N/A,,Unknown,230,2012-11-06 21:00:00
10:30 PM,44.6,39.2,81,30.27,6.2,SW,8.1,-,N/A,,Unknown,230,2012-11-06 21:30:00
11:00 PM,44.6,39.2,81,30.27,6.2,SW,8.1,-,N/A,,Overcast,230,2012-11-06 22:00:00
11:30 PM,44.6,39.2,81,30.27,6.2,SW,6.9,-,N/A,,Overcast,230,2012-11-06 22:30:00